Location: White Ridge parking lot
(35.4984°N, 106.8413°W)
Time: 16:07:46
(UTC-06:00)

XW-2D - Pass Details

Date: 20 September 2019
Orbit: 507 x 528 km, 97.5° (Epoch: 20 October)

Event Time Altitude Azimuth Distance (km) Brightness Sun altitude
Rises 06:24:40 0° 24° (NNE) 2,646 ? -6.7°
Reaches altitude 10° 06:27:01 10° 37° (NE) 1,750 ? -6.3°
Maximum altitude 06:30:15 27° 97° (E) 1,010 ? -5.6°
Drops below altitude 10° 06:33:28 10° 156° (SSE) 1,728 ? -4.9°
Sets 06:35:46 0° 169° (S) 2,605 ? -4.5°
